Simultaneous Nadir Overpasses (SNOs) Predictions

Prediction of SNOs over PacNW region [( 10.00, 139.50) to ( 22.70, 165.60)] between AQUA and NPP Satellites:

Table of predicted SNOs over PacNW region for the next 30.0 days since TLE Epoch: 12/8/2017
Index Date (AQUA) Time (AQUA) AQUA Lat,Lon Date (NPP) Time (NPP) NPP Lat,Lon Distance(km) Time Diff (sec)
1 12/10/2017 15:59:16 22.61, 147.50 12/10/2017 16:02:10 23.26, 144.48 317.86 174
2 12/18/2017 15:09:49 22.59, 159.87 12/18/2017 15:11:23 23.22, 157.16 286.62 94
3 12/21/2017 03:31:38 22.66, 147.55 12/21/2017 03:28:09 24.50, 145.23 313.39 209
4 12/26/2017 15:59:12 22.64, 147.55 12/26/2017 16:02:02 23.32, 144.51 320.50 170
5 01/03/2018 15:09:42 22.61, 159.93 01/03/2018 15:11:14 23.21, 157.18 289.83 92




NCC Satellite Simultaneous Nadir Overpasses (SNOs) Prediction Service
